Terug naar catalogus

ECHOSTAR 23

ActiefCommunicatieGEO
NORAD 42070·PAYLOAD·🇺🇸 United States

Gelanceerd Mar 16, 2017 vanaf Cape Canaveral Space Force Station

Loading…

TLE

VersSource: Space-Track

Epoch: Sep 14, 2026, 12:29 UTC

1 42070U 17014A   26257.52058617  .00000000  00000-0  00000-0 0  9992
2 42070   0.0212 157.6285 0002082  10.1907 263.1861  1.00269619 34811

Volg ECHOSTAR 23 in realtime met AllMySat

Download on the App Store